Vertical_Velocity
1 -1 -1 -2 -2 -2 1 -1 1 1 2 4 2 3 0 0 -0 -2 -1 -1 -2 4 15 2 16 5 18 15 -2 -1 2 4 1 0 -1 2 2 -0 -4 -0 -2 -3 0
-4 -3 3 0 -2 1 2 -3 -4 -2 -1 6 0 -2 -1 3 1 9 7 0 -0 7 10 -0 9 8 10 -0 -3 2 3 1 -2 -0 -1 0 2 -0 4 3 -0 -3 -2
-2 -3 -4 1 6 -0 1 -2 1 3 0 -2 -4 -2 -1 -1 -1 0 5 -6 1 18 3 -5 0 -1 2 1 1 -0 -1 -3 -0 1 1 4 1 0 -2 -4 2 2 3
-1 -4 -2 -1 2 1 -2 -2 -3 -2 2 -2 -3 0 -1 -5 1 5 3 -1 -0 1 -2 -2 -3 -2 1 -1 1 1 -1 2 2 1 -0 -3 0 -2 -1 -0 3 -5 4
1 0 3 -3 2 1 2 1 -0 -1 2 -2 -1 2 3 2 -1 -1 1 2 2 2 3 0 -0 -1 -1 0 -2 -0 1 2 1 2 -2 -2 -1 -1 0 -2 1 6 5
-2 5 -0 2 -2 0 -1 -3 -1 1 0 -0 0 -1 3 7 5 1 4 9 -1 -0 -2 1 -1 -1 -1 -1 -0 1 1 0 4 -1 -4 -1 -1 -3 -1 -3 -4 -0 5
-1 2 1 -1 -2 0 2 -0 4 0 -2 1 0 -0 -1 -2 1 1 -2 1 -4 5 1 -0 0 0 2 2 1 1 -0 1 1 -2 -1 1 -0 -2 2 3 -2 -2 -1
-2 -0 1 3 -0 1 3 2 2 -1 -3 1 -0 -0 -0 2 -2 -0 2 -0 -1 -0 1 1 1 1 0 1 1 1 1 0 -0 0 1 1 -2 -1 -0 0 2 2 0
1 -2 -4 -3 -6 1 1 -1 2 1 -2 0 -0 0 1 2 3 2 -2 -2 -2 -0 -1 0 2 2 1 1 0 1 -1 -3 4 1 -0 -1 2 1 1 -0 -2 -2 -1
-3 3 5 1 -6 -3 2 3 3 3 1 1 -0 2 2 0 1 -1 0 0 -1 1 5 4 3 1 0 -0 -2 0 0 1 -1 -2 1 1 1 -0 -1 -0 -3 1 -2
0 1 1 0 -1 2 -0 4 0 1 1 4 4 1 -3 1 1 -0 1 -1 1 1 1 0 -1 -1 3 2 -0 3 0 -0 1 -0 -1 -1 -3 -2 -3 -3 -2 -2 0
-5 -4 0 -2 12 13 3 0 3 1 1 2 1 -0 -1 -1 -1 1 1 1 -1 0 -1 1 3 2 3 2 1 -0 0 2 -0 1 1 0 2 0 -2 -3 -4 -4 0
0 -5 9 15 4 2 1 1 1 1 1 1 3 4 2 2 1 1 1 1 1 -1 0 1 1 1 1 1 2 3 2 2 3 1 2 -0 0 0 1 1 1 -3 3
2 1 -1 -0 1 5 0 -0 0 0 2 3 2 2 1 1 0 1 -1 1 2 2 3 2 1 2 2 2 2 3 4 3 2 0 0 1 0 1 1 -1 2 2 5
2 2 1 1 4 2 2 2 -1 -3 -0 0 -0 0 -0 -1 0 -1 -1 -1 1 1 0 3 4 3 1 2 2 2 2 0 -1 1 0 2 1 1 2 0 -0 3 1
1 3 -1 10 5 3 4 2 0 -1 0 -1 0 4 2 1 2 2 4 3 4 3 1 3 4 5 4 4 3 0 2 1 0 1 1 -2 -0 0 3 2 -0 -0 2
1 4 8 3 1 1 -2 1 0 -1 -1 -1 2 3 4 3 0 2 3 3 3 6 4 1 0 -0 -1 -2 -1 -0 -1 -0 1 -0 -1 0 1 1 2 1 0 2 3
4 4 15 19 19 11 4 -1 1 4 2 2 3 2 4 3 3 1 2 2 2 2 0 1 1 1 2 1 1 -0 -0 -1 -1 0 1 1 -0 1 4 2 2 1 1
29 23 21 7 6 8 10 11 3 6 7 3 2 2 1 2 -0 -2 -2 -1 0 2 1 0 0 0 -1 -1 -1 -0 0 1 -0 1 2 2 3 1 2 1 1 1 -2
5 8 11 8 -5 -3 10 8 3 4 2 3 2 1 2 1 -0 0 1 1 1 1 -0 1 2 2 0 -0 -0 1 1 2 -0 1 1 1 -1 -0 -0 1 -0 1 2
9 3 2 2 2 -1 -1 -4 -2 -0 -0 -1 -1 -1 1 0 1 -0 -0 -1 -1 -0 0 -2 -2 -2 -2 -3 -1 0 1 1 0 2 2 1 1 0 -1 -0 2 -1 -1
2 -0 -0 -0 -0 -1 0 0 -0 2 1 1 1 -0 -0 -0 -0 0 -0 0 0 -1 -1 -1 -1 -0 0 -0 -0 -1 0 -0 -1 -1 0 1 0 0 -0 2 2 2 0
-0 0 1 1 2 0 1 1 1 0 -2 -1 -2 -2 -3 -3 -3 -2 -2 -3 -1 -1 -1 -0 0 -0 -1 -1 -1 -0 0 -1 -1 -0 2 1 -1 -2 1 1 1 1 1
-1 -1 -2 -0 -1 -2 -2 -2 -1 0 -0 -1 -1 -1 -0 -1 -2 -3 -2 -2 -2 -2 -2 -2 -2 -2 -2 -3 -3 -3 -2 -1 -1 -1 -1 -1 -1 0 -0 0 0 1 1
2 0 -1 -2 -3 -2 -1 -0 -0 -1 -1 1 1 -1 -3 -2 -2 -1 -1 -2 -2 -2 -2 -1 -1 -1 -1 -2 -2 -2 -2 -3 -2 -1 -2 -1 -1 -1 0 -1 0 0 1
-2 -2 -2 -0 0 -2 -1 0 -1 -2 -2 -2 -0 -1 -2 -3 -2 -2 -2 -1 -2 -2 -1 -2 -3 -3 -3 -2 -2 -2 -2 -2 -2 -2 -1 -1 -1 0 0 0 1 0 2
Height
5716 5716 5717 5718 5717 5717 5719 5719 5719 5719 5718 5718 5717 5717 5717 5716 5715 5715 5716 5715 5713 5710 5709 5708 5707 5704 5704 5704 5703 5701 5700 5697 5694 5692 5690 5686 5681 5676 5671 5664 5658 5653 5646
5711 5711 5712 5712 5712 5713 5713 5712 5711 5712 5711 5710 5709 5707 5704 5705 5705 5706 5705 5703 5701 5700 5698 5697 5697 5696 5695 5692 5690 5690 5688 5685 5683 5680 5678 5675 5670 5664 5658 5651 5644 5637 5631
5705 5706 5706 5706 5706 5707 5707 5707 5705 5705 5704 5702 5701 5700 5697 5696 5696 5696 5694 5693 5693 5690 5688 5687 5686 5685 5684 5683 5681 5679 5677 5673 5671 5668 5665 5661 5655 5651 5645 5637 5630 5622 5615
5698 5698 5698 5698 5699 5699 5698 5698 5698 5698 5697 5695 5693 5692 5690 5689 5689 5688 5687 5685 5684 5682 5680 5679 5678 5676 5674 5672 5670 5667 5664 5662 5659 5656 5652 5646 5641 5635 5629 5622 5614 5606 5598
5690 5691 5691 5691 5691 5691 5691 5690 5690 5689 5689 5687 5685 5684 5682 5682 5681 5679 5677 5676 5674 5673 5671 5669 5667 5665 5663 5660 5657 5654 5651 5648 5645 5641 5636 5630 5624 5618 5612 5605 5596 5588 5581
5680 5682 5682 5683 5682 5681 5680 5679 5680 5679 5678 5677 5676 5674 5672 5671 5670 5668 5667 5665 5663 5662 5660 5659 5656 5654 5651 5648 5644 5641 5638 5635 5629 5624 5619 5614 5607 5600 5593 5586 5578 5571 5564
5672 5672 5673 5672 5672 5671 5670 5670 5669 5668 5668 5667 5666 5664 5663 5661 5659 5658 5657 5656 5653 5651 5649 5647 5644 5640 5637 5634 5630 5626 5622 5618 5613 5608 5603 5596 5588 5582 5576 5568 5559 5551 5542
5663 5663 5664 5663 5662 5661 5660 5660 5659 5657 5656 5655 5653 5653 5653 5652 5649 5648 5646 5643 5641 5638 5636 5633 5629 5626 5622 5618 5614 5610 5607 5602 5597 5591 5584 5577 5570 5563 5555 5548 5539 5529 5520
5654 5653 5653 5652 5651 5652 5651 5651 5649 5648 5646 5645 5643 5642 5640 5639 5638 5636 5633 5631 5629 5626 5623 5619 5615 5610 5606 5603 5599 5594 5589 5583 5578 5571 5564 5557 5550 5542 5534 5525 5517 5507 5498
5644 5643 5642 5639 5637 5639 5639 5638 5637 5637 5636 5634 5632 5630 5628 5626 5624 5621 5619 5616 5614 5611 5608 5603 5599 5594 5590 5586 5581 5576 5571 5564 5557 5550 5544 5536 5528 5519 5511 5502 5494 5485 5472
5632 5631 5629 5627 5625 5626 5626 5625 5624 5623 5622 5620 5619 5616 5614 5612 5610 5608 5605 5601 5597 5594 5590 5586 5582 5577 5572 5567 5562 5557 5550 5543 5537 5530 5522 5514 5505 5496 5487 5478 5469 5460 5450
5619 5618 5616 5614 5612 5613 5612 5611 5610 5608 5606 5605 5603 5601 5599 5597 5594 5591 5588 5584 5581 5577 5573 5568 5564 5559 5554 5549 5543 5537 5530 5522 5515 5507 5499 5491 5482 5473 5463 5453 5444 5435 5425
5606 5605 5604 5601 5601 5600 5599 5597 5596 5594 5592 5589 5588 5585 5583 5581 5578 5575 5572 5568 5564 5560 5556 5551 5547 5541 5536 5530 5523 5516 5509 5502 5494 5485 5477 5467 5459 5449 5439 5430 5421 5413 5405
5592 5590 5591 5590 5588 5588 5586 5584 5582 5580 5578 5576 5573 5571 5568 5565 5562 5559 5556 5551 5547 5542 5538 5533 5528 5522 5517 5510 5503 5496 5488 5480 5471 5463 5454 5444 5435 5426 5417 5408 5401 5392 5385
5579 5579 5578 5575 5574 5574 5572 5570 5568 5566 5563 5560 5558 5555 5552 5548 5545 5541 5537 5533 5528 5524 5519 5514 5508 5502 5495 5487 5480 5472 5464 5456 5448 5439 5430 5421 5412 5403 5394 5385 5377 5369 5362
5565 5564 5563 5562 5561 5558 5556 5554 5552 5549 5546 5543 5540 5537 5535 5532 5528 5523 5520 5516 5511 5505 5500 5493 5487 5480 5472 5464 5456 5448 5440 5431 5423 5413 5405 5397 5388 5380 5371 5361 5353 5345 5337
5551 5548 5547 5545 5543 5542 5540 5537 5534 5532 5529 5527 5524 5521 5517 5513 5510 5505 5500 5495 5490 5484 5477 5470 5463 5456 5448 5441 5432 5423 5414 5405 5396 5388 5380 5371 5362 5354 5346 5336 5327 5318 5310
5535 5533 5530 5526 5525 5523 5521 5520 5517 5515 5513 5509 5505 5502 5498 5493 5489 5485 5480 5473 5467 5461 5453 5445 5438 5430 5422 5413 5405 5397 5388 5379 5370 5361 5352 5343 5334 5326 5317 5308 5299 5292 5285
5518 5515 5513 5510 5507 5505 5503 5500 5499 5496 5493 5489 5485 5481 5477 5473 5467 5462 5457 5450 5444 5436 5429 5421 5412 5404 5397 5388 5380 5371 5361 5351 5342 5334 5324 5314 5305 5297 5288 5280 5274 5266 5260
5502 5500 5498 5496 5494 5491 5487 5484 5482 5478 5474 5470 5465 5461 5456 5451 5446 5440 5433 5426 5419 5411 5404 5396 5387 5379 5371 5362 5353 5344 5334 5324 5314 5304 5295 5284 5275 5266 5259 5253 5246 5241 5236
5488 5485 5482 5479 5478 5474 5471 5468 5464 5460 5455 5451 5446 5441 5435 5429 5422 5416 5409 5402 5394 5386 5378 5370 5362 5353 5345 5335 5325 5315 5305 5294 5283 5274 5264 5254 5246 5239 5231 5226 5221 5216 5214
5472 5469 5466 5463 5460 5457 5454 5450 5445 5440 5434 5430 5424 5418 5412 5406 5399 5392 5385 5378 5370 5363 5354 5344 5335 5325 5314 5304 5294 5284 5273 5263 5253 5244 5235 5226 5218 5210 5205 5200 5196 5193 5192
5455 5452 5449 5445 5442 5438 5433 5428 5423 5418 5413 5407 5401 5395 5389 5383 5376 5369 5361 5353 5344 5335 5325 5315 5304 5293 5283 5273 5263 5255 5245 5235 5226 5216 5208 5199 5191 5185 5181 5177 5174 5172 5172
5439 5435 5431 5427 5423 5419 5415 5410 5404 5398 5391 5385 5379 5372 5365 5358 5350 5342 5333 5324 5314 5304 5295 5285 5275 5265 5255 5245 5235 5227 5219 5210 5201 5192 5183 5175 5167 5163 5159 5157 5156 5155 5157
5419 5415 5412 5409 5405 5399 5394 5389 5382 5376 5369 5362 5355 5348 5340 5331 5323 5314 5305 5295 5285 5276 5268 5259 5251 5241 5231 5222 5213 5203 5194 5186 5177 5169 5161 5155 5150 5146 5144 5144 5144 5146 5149
5403 5398 5394 5389 5384 5379 5373 5366 5359 5352 5345 5337 5329 5321 5313 5304 5296 5287 5279 5270 5262 5253 5245 5237 5228 5219 5209 5200 5191 5182 5173 5165 5158 5152 5146 5142 5139 5137 5136 5137 5139 5142 5145